Theta_e
293 293 293 293 293 293 294 294 294 295 294 295 296 297 298 301 297 297 297 298 299 301 303 304 304 307 307 309 315 316 315 315 311 315 318 319 319 319 319 322 326 327 325
292 292 291 291 292 292 292 292 293 292 292 293 293 294 295 297 294 294 294 295 295 296 298 300 301 304 304 306 307 308 311 313 313 311 314 315 317 319 319 319 321 321 320
291 290 290 290 290 290 290 291 291 291 290 291 291 291 292 294 291 292 292 292 293 295 296 298 299 301 302 302 303 303 304 307 310 307 307 313 315 318 318 315 310 308 307
291 290 289 289 290 290 290 290 290 290 289 289 290 290 291 291 290 290 290 290 291 292 295 295 296 299 297 297 297 296 297 299 303 305 306 307 309 314 316 314 309 308 306
290 289 289 289 290 290 289 288 288 288 288 288 288 289 289 290 289 289 289 289 289 289 291 293 293 295 295 294 294 292 293 295 297 301 303 304 303 303 305 306 307 302 299
289 289 289 289 289 288 287 287 286 286 286 286 286 288 288 289 289 289 289 288 288 288 288 290 291 293 292 292 291 290 290 293 293 294 296 297 301 303 300 301 297 293 293
289 289 289 289 289 287 287 286 285 284 284 284 287 288 287 288 289 289 289 288 287 287 287 287 288 290 291 291 290 289 289 290 290 291 291 293 293 295 294 294 298 299 298
288 288 288 288 288 284 285 286 285 285 285 286 287 287 287 287 288 288 288 288 286 286 287 287 287 287 289 289 290 288 288 288 289 290 290 291 292 293 292 294 294 295 290
287 287 288 287 286 285 286 286 286 287 286 286 287 287 286 286 288 288 288 287 285 285 286 287 287 287 288 289 287 286 286 285 288 289 289 289 289 290 290 291 288 288 288
287 287 288 287 286 285 287 286 287 286 286 286 285 286 287 286 287 288 288 286 284 285 286 286 286 286 286 286 285 284 282 284 284 284 285 286 287 288 289 291 291 289 287
288 288 288 286 286 285 285 287 286 285 286 285 285 286 286 286 287 288 288 286 285 284 284 284 285 286 287 287 287 285 284 285 285 285 285 285 285 285 286 287 288 289 287
287 287 286 285 286 286 284 285 283 283 283 283 283 284 284 283 286 286 287 287 286 284 283 284 285 287 287 287 286 286 286 285 285 284 284 283 284 285 286 287 286 286 287
286 285 284 284 284 284 283 282 282 282 281 282 282 282 282 284 284 286 286 286 286 285 285 285 286 286 286 285 286 286 285 285 284 283 283 284 285 286 287 286 286 286 286
284 284 284 283 283 283 282 282 280 281 281 281 282 282 283 284 284 284 285 286 285 285 285 285 285 284 284 285 285 285 285 285 284 284 284 285 286 286 286 287 285 285 285
284 284 283 282 281 281 282 281 281 282 282 282 282 283 282 282 283 286 286 285 285 285 284 285 284 284 283 284 284 284 285 285 285 285 284 284 285 286 286 287 285 285 284
283 282 280 280 281 281 281 282 285 285 286 286 286 285 285 285 286 286 286 286 286 285 284 282 282 282 282 283 283 283 284 284 285 285 285 285 284 285 285 285 285 285 284
282 283 279 280 283 282 283 283 281 284 286 286 286 286 286 286 286 285 285 285 285 284 282 282 282 282 282 283 283 283 283 284 286 285 284 284 285 285 285 285 284 284 283
282 280 279 279 283 283 282 283 283 282 281 282 284 285 285 285 285 284 285 284 282 283 282 282 281 282 282 283 283 283 284 285 285 285 285 285 285 285 285 284 284 284 283
282 280 280 279 279 282 283 283 283 282 282 282 282 283 284 284 284 284 284 282 281 281 282 282 282 282 283 283 283 283 284 284 284 284 285 285 285 285 285 285 284 284 283
281 279 278 280 280 280 282 282 282 282 282 282 282 282 282 282 281 281 282 282 282 281 282 282 282 283 283 283 283 284 284 284 284 284 285 285 285 285 284 284 284 283 283
278 279 277 280 279 280 282 282 282 282 282 282 282 283 282 281 280 281 281 281 282 282 282 282 283 283 284 284 284 284 284 284 284 284 285 285 285 284 285 285 284 282 281
279 280 279 279 279 279 281 282 282 282 282 282 282 282 282 281 281 281 281 282 282 283 283 283 283 283 284 284 284 284 283 283 284 285 285 285 285 284 285 283 282 282 281
279 277 278 278 278 277 281 282 282 282 283 282 282 281 281 281 281 281 281 282 283 283 284 284 283 283 284 284 285 284 283 283 284 285 285 284 284 284 283 282 282 281 280
276 276 277 278 279 279 281 281 281 283 282 282 281 281 280 280 281 281 282 283 283 284 284 283 283 283 284 284 284 284 285 285 285 285 285 284 284 283 283 282 281 280 279
277 278 279 280 280 280 280 281 281 283 283 281 281 280 280 280 280 281 282 283 283 282 282 283 283 284 284 284 284 284 284 284 285 284 285 285 283 283 282 281 280 279 279
280 280 280 279 277 280 280 280 281 282 282 281 280 279 280 280 281 281 282 282 281 281 281 282 284 284 284 284 284 284 284 284 285 285 285 284 282 282 281 280 279 279 279
Wind_Speed
6 6 6 7 7 7 8 8 9 9 11 11 12 11 11 9 12 12 12 11 10 9 7 6 8 8 8 8 5 5 5 7 11 10 8 9 10 5 5 7 8 12 8
5 6 6 6 7 7 7 8 8 10 10 9 9 10 11 11 12 13 13 13 14 14 14 14 12 8 9 8 8 10 9 8 9 17 11 9 12 8 8 5 4 3 5
5 6 7 7 7 7 7 7 7 8 9 9 9 9 10 9 10 10 10 12 13 13 13 13 14 14 12 9 8 8 8 9 7 9 11 10 10 10 11 6 2 0 5
5 5 5 6 5 5 5 6 6 7 8 9 8 8 8 8 9 10 10 10 10 11 12 12 13 13 12 14 11 10 10 9 10 10 10 8 7 9 9 11 6 3 3
3 4 4 5 5 5 5 5 6 7 8 8 7 6 6 8 9 12 10 10 11 11 9 9 10 15 11 9 8 11 12 10 8 9 10 6 6 6 8 5 6 3 2
4 5 5 4 4 4 4 6 7 6 7 7 7 10 11 8 16 18 17 13 10 11 11 10 10 13 12 13 12 11 9 9 10 8 6 9 9 8 8 9 4 4 4
5 6 6 6 6 6 6 9 9 8 6 6 8 12 12 12 15 16 16 12 8 10 11 12 10 9 12 11 11 12 11 10 7 8 11 9 10 9 9 9 9 7 3
5 5 5 6 5 5 6 11 10 9 9 12 12 12 10 10 17 15 15 12 9 9 9 11 12 13 11 12 13 11 12 10 10 8 9 10 10 10 8 6 8 8 4
4 4 4 4 5 5 8 10 10 11 11 11 13 14 12 11 14 15 14 14 8 8 8 11 11 12 18 21 15 15 13 11 9 13 14 16 16 15 14 7 4 2 4
4 5 4 5 5 6 7 10 11 12 12 11 12 10 13 13 17 16 16 9 10 9 12 13 16 15 20 20 16 15 16 12 10 11 10 14 12 11 14 9 5 5 2
5 5 5 5 5 5 5 7 10 10 9 9 10 9 9 10 11 16 16 9 9 11 11 9 8 16 20 23 23 15 15 17 14 10 9 10 10 8 7 7 7 6 4
5 5 5 5 4 5 6 7 7 8 9 9 10 9 7 7 11 13 16 16 16 11 12 9 11 20 23 24 18 19 21 14 8 7 8 9 9 8 6 6 6 5 5
4 5 5 5 5 5 5 6 7 6 6 8 8 8 9 9 7 13 14 16 16 11 9 14 22 22 22 17 18 19 16 8 8 7 7 7 7 7 6 4 4 4 3
4 5 5 5 7 6 4 4 4 6 7 7 9 10 11 11 11 8 9 11 13 11 12 12 14 15 14 13 11 11 8 7 8 8 7 7 7 5 5 4 3 3 1
4 5 5 4 6 7 6 6 4 6 6 9 9 9 12 12 12 20 18 13 12 13 15 10 9 8 9 8 8 8 8 7 7 7 7 6 6 6 6 4 3 3 2
4 4 4 4 6 6 6 7 8 11 14 16 17 14 10 17 23 24 25 26 24 22 10 9 9 9 9 9 8 8 8 8 7 7 7 7 6 6 6 3 3 3 3
4 5 3 3 8 9 10 10 12 13 16 13 15 19 19 19 21 23 26 26 23 17 8 9 9 8 9 9 9 8 9 8 9 7 8 7 6 5 5 4 3 2 2
4 5 4 4 4 8 10 10 8 11 13 13 11 13 15 22 22 25 23 22 11 9 8 9 10 9 9 9 9 9 7 8 6 6 6 7 6 5 4 4 4 3 4
3 4 4 4 3 6 8 9 8 9 10 11 12 10 14 20 23 21 20 8 10 11 10 9 9 10 10 9 9 9 8 8 6 7 6 6 6 5 4 4 3 5 7
3 5 4 4 4 4 6 8 8 9 10 10 10 12 12 14 12 13 10 10 10 10 10 11 11 10 10 10 9 8 8 7 6 5 6 5 5 4 4 3 5 7 6
2 3 4 4 4 5 7 7 8 9 10 10 11 12 18 12 12 12 11 11 10 10 11 11 11 10 9 8 9 8 7 6 6 7 5 4 4 3 3 4 6 8 9
1 3 3 4 5 5 7 8 8 10 9 10 12 12 17 10 10 11 11 11 11 12 11 11 10 10 9 9 9 8 8 7 6 5 4 4 2 3 4 7 8 9 10
2 3 3 4 5 7 7 8 8 10 8 11 12 11 11 10 11 11 12 12 12 12 11 11 11 11 9 8 7 7 7 6 5 4 4 2 3 5 7 8 9 10 10
1 2 4 6 7 6 7 8 10 13 8 11 12 11 11 11 12 13 13 12 11 12 12 11 11 13 11 10 7 6 5 5 4 4 3 4 6 8 8 9 9 13 11
2 4 5 6 6 6 8 8 11 9 9 10 11 11 12 11 11 12 11 11 11 12 13 13 10 13 12 14 10 8 5 5 4 4 4 7 10 11 10 10 11 12 13
4 5 6 7 5 6 7 8 10 8 9 11 11 11 11 11 11 12 10 12 11 12 14 10 12 16 15 10 9 7 6 5 6 9 8 8 9 9 10 13 16 11 13
Wind_Direction
22 9 18 16 10 6 7 1 354 347 352 347 346 346 359 11 7 5 359 346 343 349 328 338 342 336 318 320 282 246 261 245 267 278 262 271 271 286 306 307 273 277 267
15 17 18 13 8 7 358 352 346 348 348 345 343 348 359 4 8 3 353 347 343 344 343 344 336 327 321 330 344 330 304 297 269 278 282 274 278 275 258 297 325 283 271
26 21 14 9 4 356 347 344 337 338 339 340 347 356 354 352 10 360 349 342 339 338 338 339 332 330 329 349 354 337 334 323 281 287 299 302 291 275 279 263 178 172 102
21 19 10 359 348 340 339 337 327 325 333 338 343 346 352 339 6 352 348 343 338 339 335 335 335 336 3 353 345 346 338 327 316 307 297 290 302 303 264 265 245 226 180
22 9 345 334 336 344 356 340 335 337 339 329 330 333 345 355 0 348 346 345 340 335 326 325 329 325 343 342 349 336 330 327 328 316 312 311 312 326 331 338 313 330 25
22 356 339 348 353 5 359 359 356 339 332 330 329 355 357 351 347 347 347 339 329 330 328 325 322 319 332 320 330 325 314 318 320 319 318 326 327 339 356 337 323 338 325
12 349 343 344 352 351 354 2 356 342 324 330 342 353 351 342 342 338 339 334 320 316 318 320 320 322 316 315 312 315 316 313 300 310 310 317 320 337 331 320 323 316 298
4 351 356 355 337 334 347 354 346 340 342 348 345 342 338 332 338 337 328 327 313 302 300 304 306 310 310 310 312 313 306 303 302 297 293 301 304 306 299 292 293 295 290
348 343 340 348 336 326 347 349 343 339 340 337 338 336 337 326 321 327 324 325 311 303 301 310 302 304 307 313 313 308 302 298 286 286 291 291 292 288 284 298 285 298 298
314 307 308 328 337 335 346 341 339 336 333 335 330 329 330 331 329 328 319 321 313 315 318 312 311 307 311 312 310 309 305 303 304 306 308 308 296 283 282 265 258 247 230
312 321 338 340 330 326 329 334 331 320 319 324 331 325 316 302 302 317 315 311 306 315 315 311 301 295 293 303 303 298 294 302 299 286 297 304 304 294 295 281 261 239 211
325 331 333 336 329 327 314 331 315 309 315 315 315 319 312 289 294 305 306 305 313 308 308 301 295 296 297 297 296 289 280 284 285 280 286 294 300 297 283 279 274 254 253
343 334 324 322 316 302 298 309 314 310 307 310 312 315 320 320 308 301 300 301 301 301 298 293 293 298 296 292 284 280 283 282 278 274 272 275 272 275 274 267 262 265 276
341 332 317 316 311 303 294 289 302 310 312 312 317 317 318 323 320 313 314 314 307 307 302 296 291 286 275 271 278 278 276 272 272 273 272 273 284 276 273 261 238 195 207
334 321 317 310 306 301 291 289 291 284 281 305 307 306 311 314 313 310 311 314 312 309 307 299 293 291 293 291 285 274 274 274 271 273 271 268 269 275 272 265 231 183 190
320 310 298 310 314 308 304 306 297 285 296 296 292 290 298 297 307 313 316 314 313 309 302 295 292 292 292 293 291 294 286 278 278 276 279 271 267 266 275 260 213 206 162
303 297 299 320 336 330 327 323 323 327 317 302 308 306 305 306 319 322 321 315 310 309 297 294 294 293 293 290 288 288 293 288 282 276 282 279 274 266 263 255 218 172 144
283 283 297 279 327 324 325 321 315 321 326 327 320 309 315 328 324 324 318 317 310 309 302 296 295 294 294 292 291 290 284 284 289 270 276 272 266 264 258 231 204 181 146
292 290 282 275 283 322 318 314 315 318 313 314 318 319 330 324 322 320 318 309 308 307 306 300 294 292 290 289 285 285 278 284 280 277 276 273 276 258 254 224 185 154 136
292 283 285 297 295 307 307 311 315 313 309 313 317 324 326 328 325 322 319 316 308 303 301 298 296 290 286 284 280 280 276 276 276 274 272 267 271 254 240 168 149 141 123
274 287 300 311 285 292 310 319 313 304 306 313 315 321 322 320 313 312 315 315 312 306 302 296 294 289 288 284 286 282 279 275 267 277 272 269 265 238 159 134 123 115 116
270 301 298 300 294 289 310 314 305 301 301 317 316 318 320 315 312 311 311 310 306 301 299 297 296 294 289 285 286 284 281 275 269 265 260 261 250 143 130 120 120 119 117
290 288 293 282 285 292 316 308 301 304 300 320 318 319 321 317 315 314 312 308 306 307 309 307 303 301 297 290 281 271 269 266 262 257 256 189 139 124 121 121 122 119 120
292 299 300 310 312 298 308 303 313 307 305 316 319 320 317 316 315 314 312 309 311 316 315 312 308 306 306 305 294 274 253 247 240 242 205 141 124 119 119 116 116 118 113
343 324 318 314 302 304 310 307 316 300 318 320 320 320 317 315 315 314 312 316 320 320 320 318 314 319 323 322 316 307 261 234 234 154 123 120 121 119 117 115 118 114 117
308 306 314 317 304 300 304 309 306 306 321 324 320 318 314 315 313 314 322 322 323 323 323 322 325 335 338 340 343 360 35 89 109 106 110 114 114 113 115 118 119 118 122